374  
ASUS42 KMLB 170012  
RWRMLB  
HOURLY WEATHER ROUNDUP AROUND FLORIDA  
NATIONAL WEATHER SERVICE OFFICE MELBOURNE FL  
700 PM EST WED JAN 16 2019  
 
CITY SKY/WX TMP DP RH WIND PRES REMARKS
 
MELBOURNE FAIR 54 46 74 N7 30.21R  
FORT PIERCE FAIR 55 48 77 CALM 30.20R  
ORLANDO INTL FAIR 54 43 66 N7 30.22S  
DAYTONA BEACH FAIR 50 46 86 CALM 30.24R  
VERO BEACH FAIR 54 48 80 N6 30.20R  

   
..ELSEWHERE ACROSS CENTRAL FLORIDA
 
 
 
CITY SKY/WX TMP DP RH WIND PRES REMARKS
 
PATRICK AFB FAIR 55 49 80 N9 30.21R  
KSC FAIR 49 44 82 N5 30.22R  
CAPE CANAVERAL FAIR 54 47 77 NW8 30.21R  
TITUSVILLE CLEAR 54 46 76 N8 30.23R  
ORLANDO EXEC FAIR 56 41 57 N5 30.22S  
LEESBURG FAIR 49 39 68 CALM 30.24R  
SANFORD FAIR 50 43 77 NW5 30.23R  
DELAND FAIR 48 43 81 N5 30.23R  
NEW SMYRNA BCH CLEAR 48 46 93 N3 30.24R  
ORMOND BEACH CLEAR 54 48 82 CALM 30.23S  
WINTER HAVEN FAIR 54 42 64 CALM 30.23S  
KISSIMMEE FAIR 56 44 64 N6 30.23S  
OKEECHOBEE FAIR 54 45 71 CALM 30.20S  
TAMPA FAIR 54 41 61 NW6 30.24R  

   
..NORTHERN FLORIDA
 
 
 
CITY SKY/WX TMP DP RH WIND PRES REMARKS
 
PALM COAST CLEAR 46 43 87 CALM 30.24R  
ST AUGUSTINE FAIR 49 45 86 CALM 30.25R  
GAINESVILLE FAIR 48 40 73 CALM 30.27R  
JACKSONVILLE FAIR 48 41 76 CALM 30.24R  
TALLAHASSEE FAIR 47 39 74 CALM 30.26R  

   
..ALONG THE SOUTHEAST COAST TO THE KEYS
 
 
 
CITY SKY/WX TMP DP RH WIND PRES REMARKS
 
STUART PTCLDY 59 50 72 N7 30.20S  
WEST PALM BCH FAIR 64 54 69 N9 30.18R  
MIAMI FAIR 66 52 60 NW6 30.17R  
KEY WEST FAIR 65 52 62 N9 30.17S  

   
..MARINE REPORTS
 
 
 
STATION/POSITION TIME TEMP WIND PRES WAVE SWELL
 
AIR SEA DIR/SP/G HT/PER HT/PER  
(UTC) (F) (DEG/KT/KT) (MB) (FT/S) (FT/S)  
ST AUGUSTINE FP 0000 53 59 330/ 2/ 3 1024.2R  
20NM E CAPE CANA 2350 63 330/ 16/ 17 1022.9R 5/12 3/12  
TRIDENT PIER 2342 55 67 330/ 7/ 11 1024.4R  
SEBASTIAN INLET 2345 60 60 350/ 16 1023.0S  
4NM E PORT CANAV 0000 66 N/A 2/13 2/13  
6NM NE FPR INLET 0000 70 N/A 5/13 2/13  
SETTLEMENT PT GB 0000 69 50/ 9/ 10 1021.3R  

 
 
 
CLICK HERE TO GO TO PREVIOUS BULLETINS.

The Nexlab FL Page Main Text Page